Weather History for Morgantown, WV

Change the Weather History Date:

Saturday, January 26, 2002

  Actual Average Record
Temperature  
Mean Temperature 42 °F 32 °F  
Max Temperature 51 °F 39 °F 68 °F (1950)
Min Temperature 33 °F 24 °F -4 °F (1948)
Degree Days  
Heating Degree Days 23 33  
Month to date heating degree days 880  
Since 1 July heating degree days 2864  
Cooling Degree Days 0 0  
Month to date cooling degree days 0  
Year to date cooling degree days 0  
Moisture  
Dew Point 20 °F    
Average Humidity 45    
Maximum Humidity 59    
Minimum Humidity 27    
Precipitation  
Precipitation 0.00 in 0.09 in 0.99 in (1952)
Month to date precipitation 2.35  
Year to date precipitation 2.35  
Sea Level Pressure  
Sea Level Pressure 30.26 in    
Wind  
Wind Speed 7 mph (SSW)    
Max Wind Speed 13 mph    
Max Gust Speed 16 mph    
Visibility 10 miles    
Events      
T = Trace of Precipitation, MM = Missing Value Source: NWS Daily Summary

Daily Weather History Graph

Daily Weather History Graph

Search for Another Location

Airport:

Trip Planner

Search our weather history database for the weather conditions in past years. The results will help you decide how hot, cold, wet, or windy it might be!

Date:

Astronomy

Jan. 26, 2002 Rise Set
Actual Time 7:32 AM EST 5:32 PM EST
Civil Twilight 7:03 AM EST 6:01 PM EST
Nautical Twilight 6:31 AM EST 6:33 PM EST
Astronomical Twilight 5:59 AM EST 7:05 PM EST
Moon 3:05 PM EST (1/26) 5:34 AM EST (1/26)
Length of Visible Light 10h 57m
Length of Day
9h 59m
Waxing Gibbous, 93% of the Moon is Illuminated
Jan 26
Waxing Gibbous
Jan 28
Full
Feb 4
Last Quarter
Feb 12
New
Feb 20
First Quarter

Hourly Weather History & Observations

Time (EST) Temp. Windchill Dew Point Humidity Pressure Visibility Wind Dir Wind Speed Gust Speed Precip Events Conditions
12:53 AM 35.1 °F 30.1 °F 19.9 °F 54% 30.26 in 10.0 mi SSW 5.8 mph - N/A   Clear
1:53 AM 35.1 °F 29.3 °F 19.0 °F 52% 30.26 in 10.0 mi SSW 6.9 mph - N/A   Clear
2:53 AM 35.1 °F 31.0 °F 19.0 °F 52% 30.27 in 10.0 mi SSW 4.6 mph - N/A   Clear
3:53 AM 34.0 °F 29.8 °F 19.9 °F 56% 30.27 in 10.0 mi SSW 4.6 mph - N/A   Clear
4:53 AM 33.1 °F 27.7 °F 19.9 °F 59% 30.29 in 10.0 mi SSW 5.8 mph - N/A   Clear
5:53 AM 33.1 °F 26.9 °F 19.9 °F 59% 30.29 in 10.0 mi SSW 6.9 mph - N/A   Clear
6:53 AM 34.0 °F 28.0 °F 19.9 °F 56% 30.32 in 10.0 mi SSW 6.9 mph - N/A   Clear
7:53 AM 34.0 °F 28.0 °F 19.9 °F 56% 30.32 in 10.0 mi SSW 6.9 mph - N/A   Clear
8:53 AM 37.0 °F 31.6 °F 19.9 °F 50% 30.32 in 10.0 mi SSW 6.9 mph - N/A   Clear
9:53 AM 39.9 °F 34.5 °F 21.0 °F 47% 30.33 in 10.0 mi SSW 8.1 mph - N/A   Scattered Clouds
10:53 AM 43.0 °F 37.7 °F 21.9 °F 43% 30.32 in 10.0 mi SW 9.2 mph - N/A   Mostly Cloudy
11:53 AM 45.0 °F 38.9 °F 21.9 °F 40% 30.30 in 10.0 mi SSW 12.7 mph - N/A   Mostly Cloudy
12:53 PM 46.9 °F - 21.0 °F 36% 30.27 in 10.0 mi SSW 10.4 mph - N/A   Mostly Cloudy
1:53 PM 48.0 °F - 19.0 °F 32% 30.23 in 10.0 mi SSW 10.4 mph - N/A   Scattered Clouds
2:53 PM 51.1 °F - 18.0 °F 27% 30.22 in 10.0 mi SW 9.2 mph 16.1 mph N/A   Mostly Cloudy
3:53 PM 50.0 °F - 17.1 °F 27% 30.21 in 10.0 mi SW 9.2 mph - N/A   Clear
4:53 PM 50.0 °F - 17.1 °F 27% 30.21 in 10.0 mi SW 12.7 mph - N/A   Mostly Cloudy
5:53 PM 48.0 °F - 17.1 °F 29% 30.21 in 10.0 mi SW 6.9 mph - N/A   Clear
6:53 PM 45.0 °F 43.5 °F 18.0 °F 34% 30.22 in 10.0 mi SSW 3.5 mph - N/A   Clear
7:53 PM 42.1 °F 37.7 °F 19.0 °F 40% 30.22 in 10.0 mi SSW 6.9 mph - N/A   Clear
8:53 PM 44.1 °F 42.5 °F 18.0 °F 35% 30.22 in 10.0 mi SSW 3.5 mph - N/A   Clear
9:53 PM 39.0 °F 36.8 °F 19.9 °F 46% 30.21 in 10.0 mi SW 3.5 mph - N/A   Clear
10:53 PM 35.1 °F 31.0 °F 21.9 °F 59% 30.21 in 10.0 mi SSW 4.6 mph - N/A   Clear
11:53 PM 39.0 °F 35.7 °F 23.0 °F 53% 30.20 in 10.0 mi SSW 4.6 mph - N/A   Clear